• In Latvia
  • List of Countries
  • For 7 days
  • Water Temperature
  • Satellite Maps
  • Weather Map
  • Weather Widgets
  • user-avatar
    Login

    Hourly Weather Arkadia

    Today, 22 June, Friday

    Time Temperature Precipitation Wind Pressure Humidity
    00:00 +15°C° 0.1 mm 1 mps 665 mmHg 76%
    01:00 +15°C° 0 mm 1 mps 665 mmHg 77%
    02:00 +15°C° 0 mm 1 mps 665 mmHg 77%
    03:00 +14°C° 0 mm 1 mps 665 mmHg 77%
    04:00 +14°C° 0 mm 1 mps 665 mmHg 77%
    05:00 +16°C° 0 mm 1 mps 665 mmHg 72%
    06:00 +18°C° 0 mm 1 mps 666 mmHg 66%
    07:00 +20°C° 0 mm 1 mps 666 mmHg 61%
    08:00 +21°C° 0.2 mm 1 mps 666 mmHg 56%
    09:00 +23°C° 0.2 mm 2 mps 667 mmHg 52%
    10:00 +24°C° 0.2 mm 2 mps 667 mmHg 47%
    11:00 +24°C° 0.2 mm 2 mps 667 mmHg 47%
    12:00 +24°C° 0.2 mm 3 mps 667 mmHg 47%
    13:00 +25°C° 0.2 mm 3 mps 667 mmHg 47%
    14:00 +24°C° 0.2 mm 3 mps 666 mmHg 50%
    15:00 +24°C° 0.2 mm 3 mps 666 mmHg 52%
    16:00 +22°C° 0.2 mm 3 mps 666 mmHg 54%
    17:00 +21°C° 0.1 mm 3 mps 665 mmHg 61%
    18:00 +19°C° 0.1 mm 2 mps 665 mmHg 67%
    19:00 +18°C° 0.1 mm 2 mps 665 mmHg 74%
    20:00 +17°C° 0 mm 2 mps 665 mmHg 77%
    21:00 +17°C° 0 mm 2 mps 664 mmHg 81%
    22:00 +16°C° 0 mm 2 mps 664 mmHg 85%
    23:00 +16°C° 0 mm 2 mps 664 mmHg 86%

    Tomorrow, 23 June, Saturday

    Time Temperature Precipitation Wind Pressure Humidity
    00:00 +15°C° 0 mm 2 mps 664 mmHg 87%
    01:00 +15°C° 0 mm 2 mps 664 mmHg 88%
    02:00 +15°C° 0 mm 2 mps 663 mmHg 88%
    03:00 +14°C° 0 mm 2 mps 663 mmHg 87%
    04:00 +14°C° 0 mm 2 mps 663 mmHg 87%
    05:00 +16°C° 0 mm 1 mps 664 mmHg 79%
    06:00 +18°C° 0 mm 1 mps 664 mmHg 72%
    07:00 +20°C° 0 mm 1 mps 665 mmHg 64%
    08:00 +21°C° 0 mm 1 mps 666 mmHg 58%
    09:00 +23°C° 0 mm 2 mps 666 mmHg 52%
    10:00 +24°C° 0 mm 2 mps 666 mmHg 46%
    11:00 +25°C° 0.1 mm 2 mps 666 mmHg 46%
    12:00 +25°C° 0.1 mm 2 mps 666 mmHg 46%
    13:00 +25°C° 0.1 mm 2 mps 666 mmHg 45%
    14:00 +25°C° 0.3 mm 2 mps 666 mmHg 48%
    15:00 +24°C° 0.3 mm 2 mps 666 mmHg 51%
    16:00 +23°C° 0.3 mm 2 mps 665 mmHg 54%
    17:00 +21°C° 0.2 mm 2 mps 665 mmHg 59%
    18:00 +20°C° 0.2 mm 2 mps 665 mmHg 65%
    19:00 +19°C° 0.2 mm 1 mps 665 mmHg 71%
    20:00 +19°C° 0 mm 1 mps 665 mmHg 73%
    21:00 +18°C° 0 mm 1 mps 665 mmHg 75%
    22:00 +18°C° 0 mm 1 mps 665 mmHg 78%
    23:00 +16°C° 0 mm 1 mps 665 mmHg 78%

    Day after tomorrow, 24 June, Sunday

    Time Temperature Precipitation Wind Pressure Humidity
    00:00 +16°C° 0 mm 1 mps 665 mmHg 79%
    01:00 +15°C° 0 mm 1 mps 665 mmHg 80%
    02:00 +15°C° 0 mm 1 mps 664 mmHg 81%
    03:00 +15°C° 0 mm 1 mps 664 mmHg 81%
    04:00 +14°C° 0 mm 1 mps 664 mmHg 82%
    05:00 +16°C° 0 mm 1 mps 665 mmHg 77%
    06:00 +18°C° 0 mm 1 mps 665 mmHg 73%
    07:00 +19°C° 0 mm 1 mps 666 mmHg 68%
    08:00 +19°C° 0.1 mm 2 mps 666 mmHg 65%
    09:00 +20°C° 0.1 mm 2 mps 666 mmHg 62%
    10:00 +21°C° 0.1 mm 2 mps 667 mmHg 59%
    11:00 +21°C° 1.1 mm 2 mps 667 mmHg 61%
    12:00 +20°C° 1.1 mm 2 mps 666 mmHg 64%
    13:00 +20°C° 1.1 mm 2 mps 666 mmHg 67%
    14:00 +19°C° 1.4 mm 2 mps 666 mmHg 69%
    15:00 +19°C° 1.4 mm 2 mps 666 mmHg 71%
    16:00 +19°C° 1.4 mm 1 mps 666 mmHg 74%
    17:00 +19°C° 0.8 mm 1 mps 665 mmHg 77%
    18:00 +18°C° 0.8 mm 1 mps 665 mmHg 80%
    19:00 +16°C° 0.8 mm 1 mps 665 mmHg 83%
    20:00 +16°C° 0.1 mm 1 mps 665 mmHg 84%
    21:00 +15°C° 0.1 mm 1 mps 665 mmHg 85%
    22:00 +15°C° 0.1 mm 1 mps 665 mmHg 86%
    23:00 +15°C° 0.1 mm 1 mps 665 mmHg 87%

    25 June, Monday

    Time Temperature Precipitation Wind Pressure Humidity
    00:00 +14°C° 0.1 mm 1 mps 664 mmHg 88%
    01:00 +14°C° 0.1 mm 1 mps 664 mmHg 88%
    02:00 +14°C° 0.2 mm 1 mps 664 mmHg 88%
    03:00 +14°C° 0.2 mm 1 mps 663 mmHg 89%
    04:00 +13°C° 0.2 mm 1 mps 663 mmHg 89%
    05:00 +15°C° 0.1 mm 2 mps 663 mmHg 84%
    06:00 +16°C° 0.1 mm 2 mps 664 mmHg 79%
    07:00 +17°C° 0.1 mm 2 mps 664 mmHg 74%
    08:00 +18°C° 0.5 mm 2 mps 664 mmHg 69%
    09:00 +19°C° 0.5 mm 2 mps 665 mmHg 65%
    10:00 +20°C° 0.5 mm 2 mps 665 mmHg 60%
    11:00 +19°C° 1.5 mm 2 mps 665 mmHg 62%
    12:00 +19°C° 1.5 mm 2 mps 664 mmHg 63%
    13:00 +19°C° 1.5 mm 2 mps 664 mmHg 65%
    14:00 +19°C° 1.8 mm 2 mps 664 mmHg 68%
    15:00 +18°C° 1.8 mm 2 mps 664 mmHg 71%
    16:00 +17°C° 1.8 mm 2 mps 663 mmHg 74%
    17:00 +17°C° 1.3 mm 2 mps 663 mmHg 77%
    18:00 +16°C° 1.3 mm 2 mps 663 mmHg 80%
    19:00 +15°C° 1.3 mm 2 mps 663 mmHg 83%
    20:00 +15°C° 0.6 mm 2 mps 662 mmHg 84%
    21:00 +15°C° 0.6 mm 2 mps 662 mmHg 85%
    22:00 +14°C° 0.6 mm 2 mps 662 mmHg 86%
    23:00 +14°C° 0.6 mm 2 mps 662 mmHg 87%

    26 June, Tuesday

    Time Temperature Precipitation Wind Pressure Humidity
    00:00 +14°C° 0.6 mm 2 mps 662 mmHg 88%
    01:00 +14°C° 0.6 mm 2 mps 661 mmHg 89%
    02:00 +13°C° 1 mm 2 mps 661 mmHg 90%
    03:00 +13°C° 1 mm 1 mps 660 mmHg 90%
    04:00 +13°C° 1 mm 1 mps 660 mmHg 91%
    05:00 +14°C° 0.4 mm 1 mps 660 mmHg 86%
    06:00 +15°C° 0.4 mm 1 mps 660 mmHg 82%
    07:00 +16°C° 0.4 mm 1 mps 661 mmHg 77%
    08:00 +17°C° 0.4 mm 2 mps 661 mmHg 72%
    09:00 +18°C° 0.4 mm 2 mps 661 mmHg 67%
    10:00 +19°C° 0.4 mm 2 mps 661 mmHg 62%
    11:00 +19°C° 1.1 mm 2 mps 661 mmHg 62%
    12:00 +20°C° 1.1 mm 3 mps 661 mmHg 62%
    13:00 +20°C° 1.1 mm 3 mps 661 mmHg 62%
    14:00 +19°C° 1.4 mm 3 mps 661 mmHg 64%
    15:00 +19°C° 1.4 mm 2 mps 661 mmHg 67%
    16:00 +18°C° 1.4 mm 2 mps 661 mmHg 69%
    17:00 +18°C° 1.2 mm 2 mps 661 mmHg 74%
    18:00 +17°C° 1.2 mm 2 mps 661 mmHg 78%
    19:00 +16°C° 1.2 mm 2 mps 660 mmHg 83%
    20:00 +15°C° 0.5 mm 2 mps 661 mmHg 85%
    21:00 +15°C° 0.5 mm 2 mps 661 mmHg 86%
    22:00 +15°C° 0.5 mm 2 mps 661 mmHg 88%
    23:00 +14°C° 0.3 mm 1 mps 660 mmHg 89%

    27 June, Wednesday

    Time Temperature Precipitation Wind Pressure Humidity
    00:00 +14°C° 0.3 mm 1 mps 660 mmHg 90%
    01:00 +14°C° 0.3 mm 1 mps 660 mmHg 90%
    02:00 +14°C° 0.3 mm 1 mps 660 mmHg 91%
    03:00 +13°C° 0.3 mm 1 mps 660 mmHg 91%
    04:00 +13°C° 0.3 mm 1 mps 660 mmHg 91%
    05:00 +14°C° 0.3 mm 2 mps 660 mmHg 87%
    06:00 +15°C° 0.3 mm 2 mps 661 mmHg 83%
    07:00 +16°C° 0.3 mm 2 mps 661 mmHg 79%
    08:00 +17°C° 0.7 mm 2 mps 661 mmHg 76%
    09:00 +18°C° 0.7 mm 2 mps 662 mmHg 72%
    10:00 +19°C° 0.7 mm 2 mps 662 mmHg 69%
    11:00 +19°C° 2 mm 2 mps 662 mmHg 70%
    12:00 +19°C° 2 mm 2 mps 662 mmHg 71%
    13:00 +19°C° 2 mm 2 mps 662 mmHg 72%
    14:00 +19°C° 1.7 mm 2 mps 662 mmHg 72%
    15:00 +19°C° 1.7 mm 2 mps 662 mmHg 73%
    16:00 +18°C° 1.7 mm 2 mps 662 mmHg 74%
    17:00 +18°C° 0.8 mm 1 mps 662 mmHg 78%
    18:00 +16°C° 0.8 mm 1 mps 662 mmHg 82%
    19:00 +15°C° 0.8 mm 1 mps 662 mmHg 86%
    20:00 +15°C° 0.6 mm 1 mps 662 mmHg 87%
    21:00 +15°C° 0.6 mm 1 mps 662 mmHg 89%
    22:00 +14°C° 0.6 mm 1 mps 662 mmHg 90%
    23:00 +14°C° 0.9 mm 1 mps 662 mmHg 90%
    Show more